AO-07 1 07530U 74089B 14360.22636848 -.00000015 00000-0 17713-3 0 1526 2 07530 101.4982 335.9044 0011666 280.8755 149.5620 12.53610274835582 FO-29 1 24278U 96046B 14358.57439729 -.00000023 00000-0 11374-4 0 5436 2 24278 098.5203 346.1797 0350982 163.5197 310.7571 13.53039775906415 SO-33 1 25509U 98061B 14358.92328762 .00000423 00000-0 71704-4 0 9098 2 25509 031.4311 159.4807 0348561 345.7165 179.1893 14.29785776844468 RS-22 1 27939U 03042A 14360.44926787 .00001940 00000-0 36471-3 0 1620 2 27939 097.8216 165.2665 0012626 214.0339 146.0045 14.65663810600887 HO-68 1 36122U 09072B 14360.17790670 -.00000060 00000-0 -43517-4 0 2448 2 36122 100.2220 045.9654 0007858 157.1531 202.9934 13.16321913241698 AO-73 1 39444U 13066AE 14359.25118741 .00004758 00000-0 62646-3 0 3402 2 39444 097.7537 063.2831 0060286 343.5943 016.3317 14.79334964 57698 EO-79 1 40025U 14033R 14360.45024247 .00005692 00000-0 65233-3 0 5602 2 40025 097.9675 255.4048 0014237 033.9877 326.2201 14.86246615 28131 UO-11 1 14781U 84021B 14359.81121155 .00001832 00000-0 23721-3 0 6980 2 14781 097.8272 055.9681 0007213 276.7017 083.3375 14.82037370656343 AO-16 1 20439U 90005D 14360.05733976 .00000288 00000-0 12247-3 0 2020 2 20439 098.5263 293.9437 0009877 316.3726 104.4312 14.32462178301950 LO-19 1 20442U 90005G 14358.88735846 .00000275 00000-0 11703-3 0 1357 2 20442 098.4974 292.8748 0010739 307.0614 052.9587 14.32658604301982 AO-27 1 22825U 93061C 14359.87314094 .00000206 00000-0 97234-4 0 8510 2 22825 098.6874 305.1559 0009578 096.9955 332.1186 14.29810039108171 IO-26 1 22826U 93061D 14359.46455512 .00000256 00000-0 11604-3 0 6088 2 22826 098.6817 304.9389 0010075 091.1033 269.1304 14.30119383108251 GO-32 1 25397U 98043D 14359.84316050 .00000130 00000-0 75681-4 0 5293 2 25397 098.4972 310.9437 0002439 107.5456 305.1803 14.23501421855135 NO-44 1 26931U 01043C 14360.22106637 .00000175 00000-0 99439-4 0 7832 2 26931 067.0520 263.2282 0007139 269.2978 090.7305 14.30229368691065 SO-50 1 27607U 02058C 14359.82201332 .00002184 00000-0 33737-3 0 6134 2 27607 064.5578 007.9779 0069735 323.3527 036.2815 14.74289976645729 CO-55 1 27844U 03031E 14359.87029058 .00000424 00000-0 21271-3 0 1003 2 27844 098.6973 005.8790 0010732 084.2859 035.0326 14.21667770595815 CO-57 1 27848U 03031J 14359.97767363 .00000396 00000-0 20135-3 0 405 2 27848 098.7068 005.8005 0010682 090.1395 332.3591 14.21334054595744 AO-51 1 28375U 04025K 14360.06990532 .00000351 00000-0 11644-3 0 230 2 28375 098.2747 300.6771 0084018 132.0966 228.7407 14.41539679551556 CP3 1 31129U 07012N 14359.90072449 .00001607 00000-0 35739-3 0 9324 2 31129 097.9588 328.4729 0098537 133.2076 280.7728 14.55289656407919 CO-65 1 32785U 08021C 14360.19020442 .00003162 00000-0 36605-3 0 1494 2 32785 097.6739 044.9772 0012189 277.5459 153.5011 14.86144696360533 PRISM 1 33493U 09002B 14360.45280438 .00010274 00000-0 10292-2 0 6134 2 33493 098.2517 184.5969 0016700 173.6906 186.4477 14.91483318320817 SOHLA-1 1 33496U 09002E 14359.89232483 .00000771 00000-0 13369-3 0 5465 2 33496 098.1901 121.5870 0006003 005.9824 105.5245 14.71112056317692 TISAT-1 1 36799U 10035E 14360.24177554 .00005138 00000-0 57647-3 0 8057 2 36799 098.0160 093.8242 0014201 057.4656 355.0046 14.87170953241240 STUDSAT 1 36801U 10035G 14359.22274275 .00032467 00000-0 23619-2 0 9647 2 36801 098.0526 105.3379 0006485 012.3544 045.7362 15.03718114241757 ALMASAT-1 1 38078U 12006B 14360.04681765 .00039348 32748-5 76332-3 0 2450 2 38078 069.4627 312.3229 0534066 135.3498 229.1718 14.64521134149567 XATCOBEO 1 38082U 12006F 14243.34478676 .13583328 43697-5 37939-3 0 5637 2 38082 069.3815 097.0364 0033293 225.1799 135.4582 16.41261006136239 CUBEBUG-1 1 39153U 13018D 14360.21728190 .00003589 00000-0 49690-3 0 7442 2 39153 098.0293 080.0780 0018886 092.4032 267.9342 14.78533280 89919 ESTCUBE-1 1 39161U 13021C 14360.41630921 .00003315 00000-0 55256-3 0 7881 2 39161 098.0863 079.8303 0010533 140.1332 220.0660 14.70635134 87849 DUCHIFAT-1 1 40021U 14033M 14360.35380327 .00007599 00000-0 85836-3 0 5633 2 40021 097.9679 255.4154 0015037 033.1077 327.1070 14.86719582 28112 NANOSATCBR1 1 40024U 14033Q 14360.37198981 .00006874 00000-0 78207-3 0 5539 2 40024 097.9672 255.3517 0013990 035.1916 325.0176 14.86472322 28112 DTUSAT-2 1 40030U 14033W 14360.49799945 .00005528 00000-0 63994-3 0 5460 2 40030 097.9669 255.3213 0013327 028.4257 331.7654 14.85856921 28132 ANTELSAT 1 40034U 14033AA 14360.36158290 .00005022 00000-0 78492-3 0 5617 2 40034 097.9625 251.0795 0060660 314.1768 045.4435 14.72009331 27866 MET-2/21 1 22782U 93055A 14360.19382669 .00000074 00000-0 53061-4 0 2589 2 22782 082.5486 020.9500 0023634 087.6182 343.2000 13.83755018 76671 OKEAN-4 1 23317U 94066A 14360.30694635 .00002254 00000-0 25342-3 0 7430 2 23317 082.5382 247.7387 0020229 178.1246 335.1213 14.86158813 91630 NOAA-14 1 23455U 94089A 14360.18811772 .00000003 00000-0 24285-4 0 302 2 23455 098.7659 080.1084 0009256 206.8685 205.0515 14.14013310 31081 NOAA-15 1 25338U 98030A 14360.17420403 .00000256 00000-0 12698-3 0 4678 2 25338 098.7647 353.7854 0009730 314.3511 183.1241 14.25537968864194 RESURS 1 25394U 98043A 14359.85001219 .00000100 00000-0 61074-4 0 8391 2 25394 098.4416 316.4167 0002415 079.3947 332.7000 14.24430288855601 FENGYUN1 1 25730U 99025A 14359.84487615 .00004142 00000-0 22497-2 0 3279 2 25730 098.9303 319.9789 0020560 291.6316 126.6507 14.12762875804572 OKEAN-0 1 25860U 99039A 14359.89378196 .00001141 00000-0 17442-3 0 4504 2 25860 098.0707 322.9480 0001826 116.2748 302.7967 14.75694543830427 NOAA-16 1 26536U 00055A 14360.46838950 -.00000053 00000-0 -43033-5 0 9672 2 26536 098.9664 061.4255 0010264 006.4786 353.6517 14.13067197735265 NOAA-17 1 27453U 02032A 14360.54270655 .00000145 00000-0 79737-4 0 8587 2 27453 098.3259 350.2363 0010972 334.6569 025.4072 14.24837205650070 NOAA-18 1 28654U 05018A 14360.55825824 .00000094 00000-0 76405-4 0 3805 2 28654 099.1697 344.1339 0015239 085.6504 021.3563 14.12126288494713 NOAA-19 1 33591U 09005A 14360.54688284 .00000374 00000-0 22950-3 0 5119 2 33591 098.9692 305.2229 0013097 298.8458 113.4529 14.11841272303139 HUBBLE 1 20580U 90037B 14360.07223626 .00003767 00000-0 23701-3 0 1874 2 20580 028.4688 214.9356 0002852 174.7982 319.6411 15.06520453153676 ISS 1 25544U 98067A 14360.58758971 .00018339 00000-0 29780-3 0 6332 2 25544 051.6466 225.3451 0007282 176.5379 270.3998 15.52752396921183 CO-58 1 28895U 05043F 14359.76634866 .00001682 00000-0 34067-3 0 9532 2 28895 097.8220 191.6137 0018359 123.4909 236.8051 14.62367039488246 FALCON 1 30776U 07006E 14360.18136087 .00016093 00000-0 72576-3 0 354 2 30776 035.4294 002.3599 0004190 208.6420 198.7249 15.20220961429920 MAST 1 31126U 07012K 14359.87362144 .00001006 00000-0 22704-3 0 2369 2 31126 097.9385 331.0524 0092895 116.2334 300.0703 14.55689118408279 CAPE1 1 31130U 07012P 14359.84751183 .00001510 00000-0 33841-3 0 2416 2 31130 097.9603 327.9416 0099133 134.9876 225.9411 14.55001050407678 COMPASS 1 32787U 08021E 14359.68901803 .00005711 00000-0 60599-3 0 1353 2 32787 097.6766 047.6128 0011913 267.6655 092.3199 14.89390983360679 AAUSAT2 1 32788U 08021F 14360.13139673 .00006610 00000-0 68528-3 0 1229 2 32788 097.6775 049.2804 0011620 263.4952 096.4943 14.90276430360818 DO-64 1 32789U 08021G 14360.15615072 .00013026 00000-0 11435-2 0 1687 2 32789 097.6969 057.8428 0010593 243.8732 172.6192 14.96686465361179 CO-66 1 32791U 08021J 14360.16893473 .00003868 00000-0 42923-3 0 1189 2 32791 097.6759 046.4086 0012766 271.5079 088.4675 14.87747178360582 RS-30 1 32953U 08025A 14360.43236195 .00000010 00000-0 -13620-7 0 5902 2 32953 082.5041 081.6811 0019452 098.4640 261.8646 12.43054120299141 METEOR-M 1 35865U 09049A 14360.53702301 .00000293 00000-0 15181-3 0 1977 2 35865 098.5248 041.8624 0001762 255.8797 104.2208 14.21973232273675 RS-38 1 35869U 09049E 14360.53329864 .00000196 00000-0 10730-3 0 1056 2 35869 098.5178 041.5720 0003710 255.7210 104.3584 14.22259078273718 JUGNU 1 37839U 11058B 14359.78863007 .00000480 00000-0 11423-3 0 7608 2 37839 019.9603 173.6292 0019073 295.8246 178.5328 14.12397780165677 SRMSAT 1 37841U 11058D 14359.84199128 .00000444 00000-0 99692-4 0 7643 2 37841 019.9705 196.4871 0011880 228.8529 252.8824 14.10423135165441 RAX-2 1 37853U 11061D 14359.91129227 .00018434 00000-0 11802-2 0 9972 2 37853 101.7039 121.3538 0206251 221.0516 253.8777 14.92776033171229 AUBIESAT 1 37854U 11061E 14359.23404870 .00023488 00000-0 14440-2 0 9952 2 37854 101.7078 122.9497 0203375 219.0618 216.6472 14.94452323171200 HRBE 1 37855U 11061F 14359.17340514 .00021637 00000-0 13540-2 0 168 2 37855 101.7097 121.8904 0205848 221.2053 137.3457 14.93545111171140 RS-39 1 38051U 11062C 14288.65876392 .70201582 12497-4 27925-2 0 413 2 38051 051.5964 324.1908 0006422 269.6897 186.8903 16.43533377153081 E-STAR 1 38079U 12006C 14360.57096042 .00559083 10912-3 16933-2 0 1276 2 38079 069.4261 186.8246 0133129 069.0074 292.5303 15.78751665152910 GOLIAT 1 38085U 12006J 14360.45246652 .00297502 27413-4 15609-2 0 6638 2 38085 069.4300 201.2650 0194287 074.9103 358.0769 15.58242198152538 HORYU-2 1 38340U 12025D 14359.86870301 .00003527 00000-0 55077-3 0 550 2 38340 098.2913 320.6734 0010796 290.5057 069.4991 14.73476132140009 RS-40 1 38735U 12041C 14360.48165371 .00000040 00000-0 21992-3 0 8936 2 38735 082.4745 167.6538 0016928 195.7430 164.3126 12.42565784109466 PROITERES 1 38756U 12047B 14360.42442613 .00002194 00000-0 33035-3 0 5330 2 38756 098.2242 091.8667 0013107 127.1630 233.0778 14.75429778123524 BEESAT-3 1 39134U 13015E 14359.09848152 .00014823 00000-0 93583-3 0 8032 2 39134 064.8737 253.1022 0035525 275.9296 083.7777 15.08753270 92404 BEESAT-2 1 39136U 13015G 14359.85811276 .00010449 00000-0 68294-3 0 7811 2 39136 064.8740 251.9022 0035887 275.8989 083.8042 15.07683217 92504 LO-75 1 39382U 13064C 14295.69194059 .07301741 00000-0 36367-2 0 4875 2 39382 040.4713 030.2705 0002289 341.7175 018.4586 16.19795749470823 ZACUBE-1 1 39417U 13066B 14360.24827710 .00003526 00000-0 47004-3 0 4983 2 39417 097.7536 064.1300 0060648 340.7654 019.1268 14.78969078 59066 TRITON-1 1 39427U 13066M 14359.82112521 .00002099 00000-0 35418-3 0 3498 2 39427 097.7408 055.6031 0116683 001.0088 359.1330 14.66065565 58465 DELFIN3XT 1 39428U 13066N 14360.13318399 .00004103 00000-0 69885-3 0 3545 2 39428 097.7402 054.5721 0126180 003.5832 356.6246 14.64411155 58401 GOMX-1 1 39430U 13066Q 14360.38092443 .00002942 00000-0 55717-3 0 1089 2 39430 097.7359 050.8026 0155631 014.2619 346.2903 14.57491800 58207 MO-76 1 39436U 13066W 14359.94312335 .00032641 00000-0 27758-2 0 4467 2 39436 097.7600 071.1661 0022244 333.3446 026.6631 14.97562433 59482 LO-74 1 39440U 13066AA 14359.85175271 .00002494 00000-0 36825-3 0 3455 2 39440 097.7491 060.5326 0082544 348.5549 011.3781 14.73842482 58795 PUCPSAT-1 1 39442U 13066AC 14359.73119946 .00005224 00000-0 57775-3 0 3463 2 39442 097.7601 068.6873 0033131 337.5247 022.4516 14.87405324 58072 SHINAISAT 1 39572U 14009A 14328.13084988 .28848087 76253-5 66603-3 0 4474 2 39572 064.9728 197.0096 0013534 259.7861 100.1802 16.45181032 42403 TEIKYOSAT 1 39576U 14009E 14297.85867254 .09345816 76764-5 25176-3 0 4374 2 39576 064.9818 300.5833 0008491 317.3597 044.3862 16.45008906 37698 CO-77 1 39577U 14009F 14244.78324653 .10543803 76292-5 32273-3 0 3795 2 39577 064.9920 123.7668 0014904 269.7208 091.1897 16.43552757 29380 SPROUT 1 39770U 14029E 14360.31544928 .00003226 00000-0 40065-3 0 2345 2 39770 097.8736 094.5971 0010847 051.2754 308.9415 14.83252743 32001 POPSAT-HIP1 1 40028U 14033U 14360.40368534 .00005696 00000-0 65513-3 0 5829 2 40028 097.9711 255.3977 0015562 031.5069 328.7050 14.86083368 28115 EO-80 1 40032U 14033Y 14360.43387882 .00005586 00000-0 64717-3 0 5658 2 40032 097.9660 255.2654 0013210 027.2797 332.9071 14.85821044 28123 VELOX-1 1 40057U 14034E 14360.39928700 .00005318 00000-0 79857-3 0 5734 2 40057 098.2352 070.6494 0012482 072.7625 287.4961 14.74924567 26401 DAURIA DX 1 1 40071U 14037C 14360.41045974 .00002543 00000-0 34384-3 0 5439 2 40071 098.3810 059.5781 0009777 075.2272 285.0025 14.79957819 25237 UKUBE-1 1 40074U 14037F 14360.42752197 .00005250 00000-0 68003-3 0 5449 2 40074 098.3825 059.9009 0005891 083.5280 276.6597 14.81286148 25252 CHASQUI-1 1 40117U 98067ET 14360.44561047 .00496606 00000-0 17635-2 0 3920 2 40117 051.6334 215.3784 0008052 190.0819 233.2202 15.87111029 20270 HODOYOSHI-1 1 40299U 14070B 14360.42941122 .00008859 00000-0 44239-3 0 1576 2 40299 097.4723 079.2005 0014170 020.9327 040.6536 15.17632649 7596 CHUBUSAT-1 1 40300U 14070C 14360.49838317 .00010364 00000-0 54545-3 0 1594 2 40300 097.4704 079.0937 0023776 017.5392 039.3079 15.15576301 7605 QSAT-EOS 1 40301U 14070D 14360.44789470 .00017654 00000-0 97673-3 0 1739 2 40301 097.4678 078.8391 0035276 015.6551 040.6506 15.13375298 7588 TSUBAME 1 40302U 14070E 14360.40609373 .00011543 00000-0 68088-3 0 1660 2 40302 097.4643 078.6001 0045598 016.1209 107.3581 15.10818480 7554 /EX
